,,Stat6,,Stat2,,Stat8,,Stat9,,Stat10,,Wind1,,Wind1,
time,status,PA1M_AVG,status,PR1M_SUM,status,RH1M_AVG,status,SR1M_AVG,status,TA1M_AVG,status,W1dAve1m,status,W1sAve1m,
2009-01-18, 00:00:01,VALID,919.027,VALID,0,VALID,91.0037,VALID,0,VALID,20.2145,VALID,151,VALID,1.00566,
2009-01-18, 00:01:00,VALID,919.028,VALID,0,VALID,91.1588,VALID,0.0509425,VALID,20.175,VALID,141,VALID,1.35103,
2009-01-18, 00:02:00,VALID,919.03,VALID,0,VALID,91.464,VALID,0.0509425,VALID,20.1301,VALID,174,VALID,0.827363,
2009-01-18, 00:03:00,VALID,919.017,VALID,0,VALID,91.586,VALID,0.0169808,VALID,20.1139,VALID,158,VALID,1.20191,
2009-01-18, 00:04:00,VALID,919.013,VALID,0,VALID,91.7564,VALID,0.0169808,VALID,20.0814,VALID,165,VALID,1.25618,
2009-01-18, 00:05:00,VALID,919.003,VALID,0,VALID,91.9078,VALID,0.0169808,VALID,20.0485,VALID,156,VALID,1.68864,
2009-01-18, 00:06:00,VALID,918.995,VALID,0,VALID,91.8938,VALID,0,VALID,20.066,VALID,164,VALID,1.65389,
2009-01-18, 00:07:00,VALID,918.999,VALID,0,VALID,91.9154,VALID,0.0169808,VALID,20.062,VALID,165,VALID,1.36161,
2009-01-18, 00:08:01,VALID,918.988,VALID,0,VALID,91.7704,VALID,0.0339617,VALID,20.0847,VALID,173,VALID,1.85102,
2009-01-18, 00:09:00,VALID,918.967,VALID,0,VALID,91.7285,VALID,0.0509425,VALID,20.0847,VALID,166,VALID,1.66939,
2009-01-18, 00:10:01,VALID,918.962,VALID,0,VALID,91.6191,VALID,0,VALID,20.1046,VALID,149,VALID,1.60976,
2009-01-18, 00:11:01,VALID,918.953,VALID,0,VALID,91.1804,VALID,0.0339617,VALID,20.1396,VALID,159,VALID,1.4931,
2009-01-18, 00:12:00,VALID,918.958,VALID,0,VALID,91.0482,VALID,0.0509425,VALID,20.1815,VALID,165,VALID,1.59691,
2009-01-18, 00:13:01,VALID,918.957,VALID,0,VALID,91.0024,VALID,0.0509425,VALID,20.2042,VALID,164,VALID,1.32641,
2009-01-18, 00:14:00,VALID,918.96,VALID,0,VALID,90.9986,VALID,0.0509425,VALID,20.1977,VALID,145,VALID,1.61528,
2009-01-18, 00:15:01,VALID,918.948,VALID,0,VALID,91.1499,VALID,0.0849042,VALID,20.1785,VALID,158,VALID,1.38148,
2009-01-18, 00:16:01,VALID,918.941,VALID,0,VALID,91.2414,VALID,0.0679233,VALID,20.1553,VALID,163,VALID,1.25164,
2009-01-18, 00:17:01,VALID,918.938,VALID,0,VALID,91.258,VALID,0.0849042,VALID,20.1488,VALID,151,VALID,1.49836,
2009-01-18, 00:18:01,VALID,918.915,VALID,0,VALID,91.1206,VALID,0.0169808,VALID,20.162,VALID,160,VALID,1.61973,
2009-01-18, 00:19:00,VALID,918.909,VALID,0,VALID,90.8053,VALID,0.0339617,VALID,20.1912,VALID,145,VALID,2.11868,
2009-01-18, 00:20:01,VALID,918.891,VALID,0,VALID,90.8701,VALID,0.0169808,VALID,20.1977,VALID,142,VALID,1.39063,
2009-01-18, 00:21:01,VALID,918.882,VALID,0,VALID,90.9286,VALID,0.0169808,VALID,20.1977,VALID,153,VALID,1.23652,
2009-01-18, 00:22:01,VALID,918.872,VALID,0,VALID,90.9413,VALID,0.0509425,VALID,20.1952,VALID,137,VALID,1.8544,
2009-01-18, 00:23:01,VALID,918.869,VALID,0,VALID,91.1473,VALID,0,VALID,20.1633,VALID,147,VALID,1.84032,
2009-01-18, 00:24:01,VALID,918.864,VALID,0,VALID,91.3991,VALID,-0.0169808,VALID,20.1346,VALID,150,VALID,1.8117,
2009-01-18, 00:25:01,VALID,918.871,VALID,0,VALID,91.5136,VALID,0,VALID,20.1114,VALID,156,VALID,1.49905,
2009-01-18, 00:26:01,VALID,918.866,VALID,0,VALID,91.6153,VALID,-0.0339617,VALID,20.1154,VALID,157,VALID,1.63066,
2009-01-18, 00:27:00,VALID,918.87,VALID,0,VALID,91.7196,VALID,-0.0339617,VALID,20.1027,VALID,152,VALID,2.07706,
2009-01-18, 00:28:00,VALID,918.882,VALID,0,VALID,91.7946,VALID,-0.0169808,VALID,20.0929,VALID,155,VALID,1.85361,
2009-01-18, 00:29:00,VALID,918.89,VALID,0,VALID,91.7475,VALID,-0.0169808,VALID,20.0962,VALID,174,VALID,1.3643,
2009-01-18, 00:30:00,VALID,918.897,VALID,0,VALID,91.7259,VALID,-0.0509425,VALID,20.0984,VALID,154,VALID,0.0390625,
2009-01-18, 00:31:00,VALID,918.898,VALID,0,VALID,91.7336,VALID,-0.0169808,VALID,20.1087,VALID,156,VALID,0.659375,
2009-01-18, 00:32:00,VALID,918.91,VALID,0,VALID,91.7514,VALID,-0.0169808,VALID,20.1122,VALID,148,VALID,1.42411,
2009-01-18, 00:33:00,VALID,918.905,VALID,0,VALID,91.8035,VALID,0,VALID,20.0892,VALID,153,VALID,1.56555,
2009-01-18, 00:34:00,VALID,918.891,VALID,0,VALID,91.9192,VALID,-0.0169808,VALID,20.0762,VALID,154,VALID,1.35653,
2009-01-18, 00:35:00,VALID,918.877,VALID,0,VALID,91.9497,VALID,-0.0509425,VALID,20.0597,VALID,151,VALID,1.65316,
2009-01-18, 00:36:00,VALID,918.858,VALID,0,VALID,91.993,VALID,-0.0339617,VALID,20.0797,VALID,134,VALID,1.08073,
2009-01-18, 00:37:00,VALID,918.855,VALID,0,VALID,91.9446,VALID,-0.0339617,VALID,20.0567,VALID,153,VALID,1.62005,
2009-01-18, 00:38:00,VALID,918.832,VALID,0,VALID,92.0057,VALID,-0.118866,VALID,20.0413,VALID,154,VALID,1.96591,
2009-01-18, 00:39:00,VALID,918.836,VALID,0,VALID,92.1201,VALID,-0.118866,VALID,20.0453,VALID,136,VALID,1.37246,
2009-01-18, 00:40:00,VALID,918.804,VALID,0,VALID,92.1443,VALID,-0.135847,VALID,20.025,VALID,148,VALID,1.53646,
2009-01-18, 00:41:00,VALID,918.788,VALID,0,VALID,92.204,VALID,-0.118866,VALID,20.032,VALID,151,VALID,1.71384,
2009-01-18, 00:42:00,VALID,918.75,VALID,0,VALID,92.2613,VALID,-0.135847,VALID,20.0123,VALID,150,VALID,1.60738,
2009-01-18, 00:43:00,VALID,918.713,VALID,0,VALID,92.3147,VALID,-0.118866,VALID,20.0061,VALID,156,VALID,1.61097,
2009-01-18, 00:44:00,VALID,918.689,VALID,0,VALID,92.0998,VALID,-0.118866,VALID,20.0188,VALID,150,VALID,2.4572,
2009-01-18, 00:45:00,VALID,918.67,VALID,0,VALID,91.7158,VALID,-0.101885,VALID,20.0712,VALID,138,VALID,2.32146,
2009-01-18, 00:46:00,VALID,918.656,VALID,0,VALID,91.567,VALID,-0.118866,VALID,20.0967,VALID,128,VALID,2.12383,
2009-01-18, 00:47:00,VALID,918.63,VALID,0,VALID,91.4958,VALID,-0.118866,VALID,20.1099,VALID,144,VALID,2.10254,
2009-01-18, 00:48:00,VALID,918.638,VALID,0,VALID,91.3966,VALID,-0.101885,VALID,20.1132,VALID,138,VALID,2.20476,
2009-01-18, 00:49:00,VALID,918.641,VALID,0,VALID,91.3699,VALID,-0.101885,VALID,20.1229,VALID,137,VALID,1.82489,
2009-01-18, 00:50:00,VALID,918.611,VALID,0,VALID,91.497,VALID,-0.135847,VALID,20.1134,VALID,140,VALID,1.55907,
2009-01-18, 00:51:00,VALID,918.605,VALID,0,VALID,91.6585,VALID,-0.135847,VALID,20.094,VALID,162,VALID,1.69497,
2009-01-18, 00:52:00,VALID,918.596,VALID,0,VALID,91.7793,VALID,-0.152827,VALID,20.0807,VALID,151,VALID,1.20065,
2009-01-18, 00:53:00,VALID,918.58,VALID,0,VALID,91.6573,VALID,-0.101885,VALID,20.0899,VALID,151,VALID,1.71966,
2009-01-18, 00:54:00,VALID,918.59,VALID,0,VALID,91.614,VALID,-0.0849042,VALID,20.1062,VALID,152,VALID,1.82292,
2009-01-18, 00:55:00,VALID,918.57,VALID,0,VALID,91.7081,VALID,-0.0849042,VALID,20.0999,VALID,144,VALID,2.44219,
2009-01-18, 00:56:00,VALID,918.562,VALID,0,VALID,91.8353,VALID,-0.0509425,VALID,20.073,VALID,146,VALID,2.13056,
2009-01-18, 00:57:00,VALID,918.554,VALID,0,VALID,91.8048,VALID,-0.0679233,VALID,20.077,VALID,135,VALID,1.88681,
2009-01-18, 00:58:00,VALID,918.535,VALID,0,VALID,91.7005,VALID,-0.0509425,VALID,20.0862,VALID,157,VALID,2.12705,
2009-01-18, 00:59:00,VALID,918.511,VALID,0,VALID,91.7107,VALID,-0.0849042,VALID,20.0857,VALID,143,VALID,1.55636,
2009-01-18, 01:00:00,VALID,918.5,VALID,0,VALID,91.862,VALID,-0.0509425,VALID,20.06,VALID,144,VALID,1.34468,
2009-01-18, 01:01:00,VALID,918.484,VALID,0,VALID,92.0654,VALID,-0.0169808,VALID,20.0043,VALID,131,VALID,1.40179,
2009-01-18, 01:02:00,VALID,918.462,VALID,0,VALID,92.335,VALID,-0.0339617,VALID,19.9631,VALID,129,VALID,1.65347,
2009-01-18, 01:03:00,VALID,918.452,VALID,0,VALID,92.6084,VALID,-0.0169808,VALID,19.9005,VALID,135,VALID,1.6128,
2009-01-18, 01:04:00,VALID,918.419,VALID,0,VALID,92.6974,VALID,-0.0339617,VALID,19.894,VALID,143,VALID,1.92667,
2009-01-18, 01:05:00,VALID,918.407,VALID,0,VALID,92.7292,VALID,-0.0339617,VALID,19.8875,VALID,141,VALID,1.63455,
2009-01-18, 01:06:00,VALID,918.392,VALID,0,VALID,92.719,VALID,-0.0679233,VALID,19.8715,VALID,148,VALID,1.66588,
2009-01-18, 01:07:00,VALID,918.376,VALID,0,VALID,92.6656,VALID,-0.0339617,VALID,19.8877,VALID,149,VALID,1.80521,
2009-01-18, 01:08:00,VALID,918.362,VALID,0,VALID,92.4749,VALID,-0.0849042,VALID,19.9204,VALID,144,VALID,2.36953,
2009-01-18, 01:09:00,VALID,918.357,VALID,0,VALID,92.3109,VALID,-0.0509425,VALID,19.9459,VALID,142,VALID,1.91406,
2009-01-18, 01:10:00,VALID,918.361,VALID,0,VALID,92.2231,VALID,-0.0509425,VALID,19.9624,VALID,154,VALID,1.56341,
2009-01-18, 01:11:00,VALID,918.354,VALID,0,VALID,92.1189,VALID,-0.0339617,VALID,19.9686,VALID,148,VALID,1.67624,
2009-01-18, 01:12:00,VALID,918.332,VALID,0,VALID,92.1278,VALID,-0.0509425,VALID,19.9791,VALID,169,VALID,1.15843,
2009-01-18, 01:13:00,VALID,918.317,VALID,0,VALID,92.2053,VALID,-0.0509425,VALID,19.9626,VALID,168,VALID,1.31659,
2009-01-18, 01:14:00,VALID,918.301,VALID,0,VALID,92.3083,VALID,-0.0509425,VALID,19.9496,VALID,169,VALID,0.995276,
2009-01-18, 01:15:00,VALID,918.284,VALID,0,VALID,92.4368,VALID,-0.0679233,VALID,19.9237,VALID,149,VALID,0.413715,
2009-01-18, 01:16:00,VALID,918.273,VALID,0,VALID,92.5397,VALID,-0.0339617,VALID,19.904,VALID,148,VALID,0.399581,
2009-01-18, 01:17:00,VALID,918.268,VALID,0,VALID,92.6987,VALID,-0.0169808,VALID,19.8853,VALID,154,VALID,0.231055,
2009-01-18, 01:18:00,VALID,918.247,VALID,0,VALID,92.7928,VALID,-0.0849042,VALID,19.8555,VALID,156,VALID,0.791424,
2009-01-18, 01:19:00,VALID,918.252,VALID,0,VALID,92.8208,VALID,-0.0679233,VALID,19.8625,VALID,172,VALID,0.553354,
2009-01-18, 01:20:00,VALID,918.248,VALID,0,VALID,92.6822,VALID,-0.0509425,VALID,19.868,VALID,167,VALID,1.53449,
2009-01-18, 01:21:00,VALID,918.239,VALID,0,VALID,92.5906,VALID,-0.0509425,VALID,19.898,VALID,139,VALID,1.43605,
2009-01-18, 01:22:00,VALID,918.245,VALID,0,VALID,92.494,VALID,-0.0339617,VALID,19.9075,VALID,152,VALID,1.6431,
2009-01-18, 01:23:00,VALID,918.247,VALID,0,VALID,92.4151,VALID,-0.0679233,VALID,19.9167,VALID,157,VALID,1.35993,
2009-01-18, 01:24:00,VALID,918.244,VALID,0,VALID,92.4431,VALID,-0.0849042,VALID,19.9207,VALID,165,VALID,1.44219,
2009-01-18, 01:25:00,VALID,918.242,VALID,0,VALID,92.4558,VALID,-0.0509425,VALID,19.901,VALID,150,VALID,1.53736,
2009-01-18, 01:26:00,VALID,918.255,VALID,0,VALID,92.4546,VALID,-0.0339617,VALID,19.894,VALID,159,VALID,1.79892,
2009-01-18, 01:27:00,VALID,918.247,VALID,0,VALID,92.4685,VALID,0,VALID,19.9005,VALID,167,VALID,1.76119,
2009-01-18, 01:28:00,VALID,918.239,VALID,0,VALID,92.4113,VALID,-0.0849042,VALID,19.904,VALID,168,VALID,1.94323,
2009-01-18, 01:29:00,VALID,918.238,VALID,0,VALID,92.3045,VALID,-0.0509425,VALID,19.9272,VALID,157,VALID,1.61446,
2009-01-18, 01:30:00,VALID,918.225,VALID,0,VALID,92.1443,VALID,-0.0509425,VALID,19.9502,VALID,163,VALID,1.7798,
2009-01-18, 01:31:00,VALID,918.197,VALID,0,VALID,91.9078,VALID,-0.0679233,VALID,19.9888,VALID,180,VALID,1.61665,
2009-01-18, 01:32:00,VALID,918.208,VALID,0,VALID,91.773,VALID,-0.0509425,VALID,20.0048,VALID,162,VALID,2.18508,
2009-01-18, 01:33:00,VALID,918.188,VALID,0,VALID,91.7107,VALID,-0.0509425,VALID,20.0248,VALID,156,VALID,1.12324,
2009-01-18, 01:34:00,VALID,918.194,VALID,0,VALID,91.5899,VALID,-0.0679233,VALID,20.0408,VALID,129,VALID,1.82344,
2009-01-18, 01:35:00,VALID,918.177,VALID,0,VALID,91.5822,VALID,-0.0339617,VALID,20.0537,VALID,119,VALID,1.26626,
2009-01-18, 01:36:00,VALID,918.159,VALID,0,VALID,91.5721,VALID,-0.0339617,VALID,20.05,VALID,145,VALID,1.83394,
2009-01-18, 01:37:00,VALID,918.152,VALID,0,VALID,91.6331,VALID,-0.0509425,VALID,20.0637,VALID,142,VALID,1.68006,
2009-01-18, 01:38:00,VALID,918.146,VALID,0,VALID,91.7603,VALID,-0.0339617,VALID,20.041,VALID,153,VALID,1.37118,
2009-01-18, 01:39:00,VALID,918.126,VALID,0,VALID,91.9345,VALID,-0.0509425,VALID,20.0285,VALID,130,VALID,1.45449,
2009-01-18, 01:40:00,VALID,918.096,VALID,0,VALID,92.0426,VALID,-0.0679233,VALID,19.9983,VALID,146,VALID,1.39044,
2009-01-18, 01:41:00,VALID,918.084,VALID,0,VALID,92.0349,VALID,-0.0509425,VALID,20.0078,VALID,135,VALID,2.2658,
2009-01-18, 01:42:00,VALID,918.071,VALID,0,VALID,92.1773,VALID,-0.0339617,VALID,20.0078,VALID,154,VALID,1.1468,
2009-01-18, 01:43:00,VALID,918.045,VALID,0,VALID,92.2422,VALID,-0.0679233,VALID,19.9853,VALID,149,VALID,1.39329,
2009-01-18, 01:44:00,VALID,918.051,VALID,0,VALID,92.2702,VALID,-0.0679233,VALID,19.9759,VALID,154,VALID,1.52471,
2009-01-18, 01:45:00,VALID,918.044,VALID,0,VALID,92.2613,VALID,-0.0509425,VALID,19.9724,VALID,149,VALID,1.71439,
2009-01-18, 01:46:00,VALID,918.032,VALID,0,VALID,92.2854,VALID,-0.0679233,VALID,19.9794,VALID,163,VALID,1.92645,
2009-01-18, 01:47:00,VALID,918.014,VALID,0,VALID,92.2193,VALID,-0.118866,VALID,19.9858,VALID,158,VALID,1.8793,
2009-01-18, 01:48:00,VALID,918.005,VALID,0,VALID,92.1951,VALID,-0.0509425,VALID,19.9883,VALID,155,VALID,2.07924,
2009-01-18, 01:49:00,VALID,918.003,VALID,0,VALID,92.1723,VALID,-0.0509425,VALID,19.9951,VALID,167,VALID,2.12855,
2009-01-18, 01:50:00,VALID,918.001,VALID,0,VALID,92.101,VALID,-0.0509425,VALID,20.0016,VALID,136,VALID,1.41285,
2009-01-18, 01:51:00,VALID,917.996,VALID,0,VALID,92.1354,VALID,-0.0339617,VALID,20.0043,VALID,136,VALID,1.29279,
2009-01-18, 01:52:00,VALID,917.966,VALID,0,VALID,92.1201,VALID,-0.0679233,VALID,19.9951,VALID,151,VALID,1.11519,
2009-01-18, 01:53:00,VALID,917.958,VALID,0,VALID,92.157,VALID,-0.0679233,VALID,20.0051,VALID,161,VALID,1.0067,
2009-01-18, 01:54:00,VALID,917.96,VALID,0,VALID,92.2676,VALID,-0.0509425,VALID,20.0048,VALID,160,VALID,1.64825,
2009-01-18, 01:55:00,VALID,917.942,VALID,0,VALID,92.3452,VALID,-0.0849042,VALID,19.9888,VALID,153,VALID,1.23301,
2009-01-18, 01:56:00,VALID,917.922,VALID,0,VALID,92.4291,VALID,-0.0849042,VALID,19.9729,VALID,155,VALID,1.39473,
2009-01-18, 01:57:00,VALID,917.904,VALID,0,VALID,92.4825,VALID,-0.0679233,VALID,19.9491,VALID,137,VALID,1.28837,
2009-01-18, 01:58:00,VALID,917.882,VALID,0,VALID,92.3999,VALID,-0.0679233,VALID,19.9429,VALID,145,VALID,1.43271,
2009-01-18, 01:59:00,VALID,917.867,VALID,0,VALID,92.4609,VALID,-0.0679233,VALID,19.9594,VALID,167,VALID,1.03441,
2009-01-18, 02:00:00,VALID,917.858,VALID,0,VALID,92.4393,VALID,-0.0679233,VALID,19.9397,VALID,147,VALID,1.50818,
2009-01-18, 02:01:00,VALID,917.843,VALID,0,VALID,92.2854,VALID,-0.0679233,VALID,19.9726,VALID,141,VALID,1.50763,
2009-01-18, 02:02:00,VALID,917.837,VALID,0,VALID,92.2244,VALID,-0.0509425,VALID,19.9791,VALID,165,VALID,1.68142,
2009-01-18, 02:03:00,VALID,917.814,VALID,0,VALID,92.1634,VALID,-0.0339617,VALID,19.9689,VALID,156,VALID,1.36592,
2009-01-18, 02:04:00,VALID,917.79,VALID,0,VALID,92.1239,VALID,-0.0339617,VALID,19.9818,VALID,156,VALID,0.971037,
2009-01-18, 02:05:00,VALID,917.785,VALID,0,VALID,92.0883,VALID,-0.0849042,VALID,19.9921,VALID,145,VALID,1.2153,
2009-01-18, 02:06:00,VALID,917.783,VALID,0,VALID,92.0222,VALID,-0.0339617,VALID,20.0051,VALID,138,VALID,1.44132,
2009-01-18, 02:07:00,VALID,917.782,VALID,0,VALID,91.9421,VALID,-0.0509425,VALID,20.0153,VALID,171,VALID,1.51505,
2009-01-18, 02:08:00,VALID,917.783,VALID,0,VALID,91.9446,VALID,-0.0509425,VALID,20.0215,VALID,116,VALID,1.04332,
2009-01-18, 02:09:00,VALID,917.773,VALID,0,VALID,91.7984,VALID,-0.0339617,VALID,20.0081,VALID,153,VALID,1.6669,
2009-01-18, 02:10:00,VALID,917.757,VALID,0,VALID,91.7323,VALID,-0.0169808,VALID,20.054,VALID,165,VALID,1.32899,
2009-01-18, 02:11:00,VALID,917.751,VALID,0,VALID,91.6585,VALID,-0.0339617,VALID,20.047,VALID,166,VALID,1.6766,
2009-01-18, 02:12:00,VALID,917.751,VALID,0,VALID,91.656,VALID,-0.0169808,VALID,20.05,VALID,141,VALID,1.82344,
2009-01-18, 02:13:00,VALID,917.736,VALID,0,VALID,91.6801,VALID,-0.0169808,VALID,20.0403,VALID,141,VALID,1.67862,
2009-01-18, 02:14:00,VALID,917.715,VALID,0,VALID,91.6801,VALID,-0.0339617,VALID,20.0373,VALID,150,VALID,1.56198,
2009-01-18, 02:15:00,VALID,917.695,VALID,0,VALID,91.7068,VALID,-0.0339617,VALID,20.0405,VALID,140,VALID,1.18008,
2009-01-18, 02:16:00,VALID,917.653,VALID,0,VALID,91.628,VALID,0,VALID,20.0467,VALID,143,VALID,1.19082,
2009-01-18, 02:17:00,VALID,917.644,VALID,0,VALID,91.773,VALID,-0.0509425,VALID,20.027,VALID,134,VALID,1.19874,
2009-01-18, 02:18:00,VALID,917.616,VALID,0,VALID,92.068,VALID,-0.0169808,VALID,19.9751,VALID,97,VALID,1.2619,
2009-01-18, 02:19:00,VALID,917.607,VALID,0,VALID,92.4342,VALID,0,VALID,19.9264,VALID,130,VALID,1.29539,
2009-01-18, 02:20:00,VALID,917.594,VALID,0,VALID,92.733,VALID,0,VALID,19.8745,VALID,135,VALID,1.20522,
2009-01-18, 02:21:00,VALID,917.584,VALID,0,VALID,92.8386,VALID,0,VALID,19.8388,VALID,128,VALID,1.63385,
2009-01-18, 02:22:00,VALID,917.551,VALID,0,VALID,92.8259,VALID,-0.0339617,VALID,19.8518,VALID,120,VALID,1.64577,
2009-01-18, 02:23:00,VALID,917.547,VALID,0,VALID,92.6962,VALID,-0.0339617,VALID,19.8615,VALID,134,VALID,1.82924,
2009-01-18, 02:24:00,VALID,917.532,VALID,0,VALID,92.5855,VALID,-0.0339617,VALID,19.8843,VALID,126,VALID,1.30901,
2009-01-18, 02:25:00,VALID,917.526,VALID,0,VALID,92.4469,VALID,-0.0339617,VALID,19.8972,VALID,133,VALID,0.906068,
2009-01-18, 02:26:00,VALID,917.529,VALID,0,VALID,92.4062,VALID,-0.0679233,VALID,19.9239,VALID,138,VALID,1.13281,
2009-01-18, 02:27:00,VALID,917.532,VALID,0,VALID,92.2638,VALID,-0.0339617,VALID,19.9267,VALID,147,VALID,1.21146,
2009-01-18, 02:28:00,VALID,917.532,VALID,0,VALID,92.1074,VALID,-0.0849042,VALID,19.9531,VALID,169,VALID,1.39276,
2009-01-18, 02:29:00,VALID,917.524,VALID,0,VALID,91.9319,VALID,-0.0339617,VALID,19.9751,VALID,159,VALID,1.37645,
2009-01-18, 02:30:00,VALID,917.521,VALID,0,VALID,91.9472,VALID,-0.0679233,VALID,19.9883,VALID,167,VALID,1.23547,
2009-01-18, 02:31:00,VALID,917.508,VALID,0,VALID,92.026,VALID,-0.0339617,VALID,19.9851,VALID,146,VALID,0.934048,
2009-01-18, 02:32:00,VALID,917.479,VALID,0,VALID,92.0985,VALID,-0.0509425,VALID,19.9691,VALID,151,VALID,1.10243,
2009-01-18, 02:33:00,VALID,917.479,VALID,0,VALID,92.185,VALID,-0.0509425,VALID,19.9594,VALID,166,VALID,1.3205,
2009-01-18, 02:34:00,VALID,917.465,VALID,0,VALID,92.2028,VALID,0,VALID,19.9427,VALID,166,VALID,1.17986,
2009-01-18, 02:35:00,VALID,917.456,VALID,0,VALID,92.1723,VALID,0,VALID,19.9491,VALID,159,VALID,1.07312,
2009-01-18, 02:36:00,VALID,917.453,VALID,0,VALID,92.2231,VALID,-0.0339617,VALID,19.9556,VALID,134,VALID,0.941592,
2009-01-18, 02:37:00,VALID,917.466,VALID,0,VALID,92.2409,VALID,-0.0339617,VALID,19.9399,VALID,149,VALID,0.976563,
2009-01-18, 02:38:00,VALID,917.448,VALID,0,VALID,92.3299,VALID,-0.0679233,VALID,19.9334,VALID,131,VALID,0.603198,
2009-01-18, 02:39:00,VALID,917.445,VALID,0,VALID,92.2155,VALID,-0.0339617,VALID,19.9362,VALID,147,VALID,1.79576,
2009-01-18, 02:40:00,VALID,917.427,VALID,0,VALID,92.0375,VALID,-0.0509425,VALID,19.9559,VALID,159,VALID,1.47861,
2009-01-18, 02:41:00,VALID,917.411,VALID,0,VALID,91.9243,VALID,-0.0509425,VALID,19.9851,VALID,167,VALID,1.03925,
2009-01-18, 02:42:00,VALID,917.406,VALID,0,VALID,91.8594,VALID,-0.0169808,VALID,19.9981,VALID,133,VALID,1.61779,
2009-01-18, 02:43:00,VALID,917.409,VALID,0,VALID,91.7857,VALID,-0.0339617,VALID,19.9883,VALID,140,VALID,1.65589,
2009-01-18, 02:44:00,VALID,917.407,VALID,0,VALID,91.7501,VALID,-0.0339617,VALID,19.9881,VALID,149,VALID,1.36846,
2009-01-18, 02:45:00,VALID,917.397,VALID,0,VALID,91.5771,VALID,-0.0169808,VALID,20.0105,VALID,152,VALID,1.94792,
2009-01-18, 02:46:00,VALID,917.385,VALID,0,VALID,91.5746,VALID,-0.0169808,VALID,20.037,VALID,143,VALID,1.46224,
2009-01-18, 02:47:00,VALID,917.377,VALID,0,VALID,91.6166,VALID,-0.0169808,VALID,20.0105,VALID,135,VALID,1.54028,
2009-01-18, 02:48:00,VALID,917.349,VALID,0,VALID,91.703,VALID,0.0169808,VALID,20.0043,VALID,152,VALID,1.2777,
2009-01-18, 02:49:00,VALID,917.352,VALID,0,VALID,91.7336,VALID,0,VALID,19.9913,VALID,155,VALID,1.4658,
2009-01-18, 02:50:00,VALID,917.337,VALID,0,VALID,91.8086,VALID,-0.0169808,VALID,19.9848,VALID,136,VALID,1.34464,
2009-01-18, 02:51:00,VALID,917.33,VALID,0,VALID,91.8951,VALID,0,VALID,19.9619,VALID,142,VALID,1.42118,
2009-01-18, 02:52:00,VALID,917.328,VALID,0,VALID,91.8556,VALID,0,VALID,19.9719,VALID,151,VALID,1.84783,
2009-01-18, 02:53:00,VALID,917.318,VALID,0,VALID,91.689,VALID,-0.118866,VALID,19.9993,VALID,166,VALID,1.72142,
2009-01-18, 02:54:00,VALID,917.318,VALID,0,VALID,91.6865,VALID,-0.135847,VALID,20.0091,VALID,147,VALID,1.32014,
2009-01-18, 02:55:00,VALID,917.325,VALID,0,VALID,91.6598,VALID,-0.118866,VALID,20.0123,VALID,146,VALID,2.22266,
2009-01-18, 02:56:00,VALID,917.328,VALID,0,VALID,91.7399,VALID,-0.135847,VALID,20.0091,VALID,165,VALID,1.7182,
2009-01-18, 02:57:00,VALID,917.325,VALID,0,VALID,91.4436,VALID,-0.118866,VALID,20.0153,VALID,177,VALID,3.623,
2009-01-18, 02:58:00,VALID,917.316,VALID,0,VALID,90.9948,VALID,-0.118866,VALID,20.1034,VALID,150,VALID,1.99325,
2009-01-18, 02:59:00,VALID,917.326,VALID,0,VALID,90.8193,VALID,-0.101885,VALID,20.1519,VALID,165,VALID,1.44785,
2009-01-18, 03:00:00,VALID,917.313,VALID,0,VALID,90.6858,VALID,-0.101885,VALID,20.1683,VALID,154,VALID,1.88976,
2009-01-18, 03:01:00,VALID,917.302,VALID,0,VALID,90.6985,VALID,-0.118866,VALID,20.1846,VALID,169,VALID,0.926639,
2009-01-18, 03:02:00,VALID,917.316,VALID,0,VALID,90.7862,VALID,-0.135847,VALID,20.1816,VALID,154,VALID,1.57608,
2009-01-18, 03:03:00,VALID,917.319,VALID,0,VALID,90.9464,VALID,-0.118866,VALID,20.1489,VALID,150,VALID,2.05842,
2009-01-18, 03:04:00,VALID,917.309,VALID,0,VALID,91.1715,VALID,-0.101885,VALID,20.1099,VALID,143,VALID,2.13672,
2009-01-18, 03:05:00,VALID,917.304,VALID,0,VALID,91.3622,VALID,-0.118866,VALID,20.1002,VALID,162,VALID,1.13207,
2009-01-18, 03:06:00,VALID,917.301,VALID,0,VALID,91.3724,VALID,-0.135847,VALID,20.0775,VALID,150,VALID,1.12274,
2009-01-18, 03:07:00,VALID,917.291,VALID,0,VALID,91.5021,VALID,-0.0849042,VALID,20.0672,VALID,152,VALID,1.56597,
2009-01-18, 03:08:00,VALID,917.281,VALID,0,VALID,91.5873,VALID,-0.0169808,VALID,20.04,VALID,159,VALID,2.1637,
2009-01-18, 03:09:00,VALID,917.269,VALID,0,VALID,91.4207,VALID,-0.0679233,VALID,20.0565,VALID,155,VALID,2.1516,
2009-01-18, 03:10:00,VALID,917.25,VALID,0,VALID,91.3076,VALID,0,VALID,20.0857,VALID,154,VALID,1.7752,
2009-01-18, 03:11:00,VALID,917.244,VALID,0,VALID,91.2898,VALID,-0.0509425,VALID,20.0989,VALID,137,VALID,1.23704,
2009-01-18, 03:12:00,VALID,917.233,VALID,0,VALID,91.3457,VALID,-0.0169808,VALID,20.0859,VALID,125,VALID,1.47713,
2009-01-18, 03:13:00,VALID,917.203,VALID,0,VALID,91.4271,VALID,-0.0169808,VALID,20.076,VALID,144,VALID,1.22199,
2009-01-18, 03:14:00,VALID,917.22,VALID,0,VALID,91.3622,VALID,-0.0339617,VALID,20.0757,VALID,135,VALID,2.11682,
2009-01-18, 03:15:00,VALID,917.206,VALID,0,VALID,91.3088,VALID,-0.0339617,VALID,20.0822,VALID,143,VALID,1.69041,
2009-01-18, 03:16:00,VALID,917.181,VALID,0,VALID,91.2173,VALID,-0.0849042,VALID,20.0922,VALID,128,VALID,1.86055,
2009-01-18, 03:17:00,VALID,917.178,VALID,0,VALID,91.174,VALID,-0.0339617,VALID,20.0987,VALID,152,VALID,1.55487,
2009-01-18, 03:18:00,VALID,917.175,VALID,0,VALID,91.1804,VALID,-0.0339617,VALID,20.0949,VALID,146,VALID,1.46494,
2009-01-18, 03:19:00,VALID,917.185,VALID,0,VALID,91.1639,VALID,-0.0509425,VALID,20.0887,VALID,158,VALID,1.81309,
2009-01-18, 03:20:00,VALID,917.184,VALID,0,VALID,91.0431,VALID,-0.0339617,VALID,20.0984,VALID,151,VALID,2.52126,
2009-01-18, 03:21:00,VALID,917.193,VALID,0,VALID,90.9223,VALID,-0.0169808,VALID,20.1281,VALID,143,VALID,2.4871,
2009-01-18, 03:22:00,VALID,917.192,VALID,0,VALID,90.8129,VALID,-0.0169808,VALID,20.1346,VALID,124,VALID,1.19398,
2009-01-18, 03:23:00,VALID,917.197,VALID,0,VALID,90.7481,VALID,-0.0339617,VALID,20.1471,VALID,125,VALID,1.92726,
2009-01-18, 03:24:00,VALID,917.2,VALID,0,VALID,90.8803,VALID,-0.0339617,VALID,20.1441,VALID,139,VALID,1.34648,
2009-01-18, 03:25:00,VALID,917.202,VALID,0,VALID,91.0354,VALID,-0.0339617,VALID,20.1049,VALID,145,VALID,1.65278,
2009-01-18, 03:26:00,VALID,917.201,VALID,0,VALID,91.1537,VALID,-0.0339617,VALID,20.0789,VALID,132,VALID,1.83026,
2009-01-18, 03:27:00,VALID,917.207,VALID,0,VALID,91.1842,VALID,-0.0169808,VALID,20.0822,VALID,142,VALID,2.15044,
2009-01-18, 03:28:00,VALID,917.194,VALID,0,VALID,91.1753,VALID,0,VALID,20.0725,VALID,162,VALID,1.41181,
2009-01-18, 03:29:00,VALID,917.202,VALID,0,VALID,91.1334,VALID,-0.0679233,VALID,20.0887,VALID,168,VALID,1.31641,
2009-01-18, 03:30:00,VALID,917.182,VALID,0,VALID,91.0189,VALID,-0.0509425,VALID,20.0987,VALID,148,VALID,2.23522,